RH
33 31 34 38 40 40 37 36 38 38 35 30 32 33 35 36 36 32 30 31 36 34 35 37 38 42 44 50 52 47 45 46 46 38 36 37 38 34 28 23 23 25 24 24 25
37 36 37 40 41 40 40 36 34 32 31 30 33 32 30 31 30 32 31 33 35 34 37 38 39 42 45 50 56 52 48 46 45 48 49 47 44 39 29 26 24 26 25 26 28
35 36 39 40 41 40 38 36 35 33 32 35 33 33 33 33 30 30 34 36 36 36 38 41 41 44 44 50 51 46 43 41 45 46 51 50 48 44 32 31 28 29 30 30 29
35 38 41 42 41 37 33 32 33 34 33 32 33 34 34 34 32 32 35 35 37 35 37 40 40 42 45 44 43 42 39 40 39 43 48 53 51 45 35 35 31 34 34 29 29
40 42 41 42 41 36 34 30 29 30 29 31 32 34 37 37 35 36 36 38 39 37 37 37 40 46 48 48 47 45 40 38 36 38 44 57 52 45 41 39 34 34 34 35 32
42 41 41 41 34 32 32 30 30 31 30 31 32 34 36 38 39 38 39 40 41 41 40 42 43 43 49 49 46 45 48 48 40 37 41 54 51 46 48 44 42 43 46 42 40
46 44 43 39 34 34 33 31 30 30 30 31 32 34 37 39 39 40 41 43 44 45 45 47 46 48 49 49 51 47 47 45 41 36 37 50 48 46 47 44 50 55 53 48 44
46 43 36 32 34 32 31 29 29 30 30 31 33 34 36 37 39 40 43 44 46 47 46 44 47 51 49 49 53 56 50 42 37 36 34 43 57 44 41 52 68 68 57 50 42
39 30 29 30 30 28 28 29 29 31 32 32 32 33 35 38 40 41 43 46 49 47 46 46 45 47 49 51 54 52 42 36 32 30 32 40 64 59 53 65 74 61 52 46 43
34 30 30 29 32 33 37 38 39 36 35 35 36 36 38 39 41 43 46 49 52 49 46 42 44 46 48 50 52 52 50 40 35 31 35 41 64 72 82 77 74 56 45 44 44
34 40 38 35 36 37 38 37 36 37 37 39 36 37 39 39 43 46 49 51 55 54 49 45 46 49 52 51 51 44 38 33 34 33 36 55 73 84 88 89 72 49 42 41 42
36 38 38 36 35 36 35 34 33 34 35 36 37 36 38 40 44 47 50 51 51 51 48 48 50 50 52 54 50 46 37 32 31 36 38 49 88 90 89 80 54 42 41 43 48
49 44 39 38 36 34 34 36 39 39 39 38 38 40 40 43 48 48 50 53 55 55 54 50 48 50 52 53 43 41 34 32 30 33 36 40 89 97 92 69 62 59 47 44 51
46 46 46 45 42 39 42 44 46 43 43 41 42 44 45 48 48 48 50 57 65 65 58 47 48 50 51 48 46 39 32 30 26 27 32 38 71 99 89 98 97 82 49 45 46
40 42 43 42 43 43 42 43 43 42 42 44 46 48 51 52 50 49 57 67 65 58 54 51 50 49 52 53 46 39 34 30 26 26 29 41 48 98 92 100 77 57 45 43 48
37 38 38 38 38 37 37 38 38 38 41 45 49 53 53 52 53 57 57 56 54 49 53 50 52 54 51 46 40 37 32 27 24 26 34 55 57 84 77 85 68 58 50 45 44
37 37 37 36 33 33 35 34 33 34 40 45 51 57 55 55 56 54 58 59 54 47 60 57 57 53 49 44 39 34 30 26 26 30 49 67 71 72 67 56 58 54 45 43 43
33 34 33 32 34 33 34 35 35 36 38 41 49 55 57 51 51 50 53 55 57 54 53 48 46 51 49 44 40 36 32 29 36 50 64 68 71 61 46 56 65 48 44 44 47
29 29 31 32 32 32 33 34 37 42 46 46 45 42 44 41 42 52 55 58 60 58 56 47 46 44 45 43 40 38 37 42 52 67 72 73 69 69 80 74 65 48 43 49 51
35 34 31 32 33 31 34 38 40 43 47 47 45 43 46 46 49 54 56 65 61 65 58 50 48 47 48 44 40 39 43 67 78 81 79 79 76 67 56 48 45 49 51 50 57
36 39 37 37 36 38 36 35 40 43 46 47 48 43 44 47 52 49 53 50 61 61 55 53 52 47 38 33 32 44 63 100 98 93 79 85 72 76 52 48 53 65 68 65 64
35 32 36 36 35 36 36 36 39 41 40 38 37 40 40 40 37 41 48 55 48 50 52 49 44 35 34 33 42 60 79 82 86 94 85 79 56 73 62 59 66 88 82 77 75
32 33 32 35 37 38 38 38 37 36 34 34 36 40 46 47 40 45 57 56 47 43 38 34 33 33 36 41 71 78 80 84 97 96 85 68 74 74 78 73 96 90 75 78 78
28 28 29 29 31 34 36 36 36 35 34 35 39 45 47 46 50 48 47 45 41 35 43 44 44 59 66 76 86 74 79 88 100 84 77 72 71 98 82 97 99 93 88 93 100
23 24 27 28 29 28 28 30 32 31 30 31 33 45 42 48 52 46 46 46 42 50 63 72 74 79 84 100 98 74 88 100 98 94 93 92 98 97 99 100 83 82 93 100 100
37 44 52 49 53 38 40 46 38 38 32 36 45 51 52 45 37 43 49 58 78 91 94 93 84 84 73 98 95 84 92 84 99 100 94 100 100 100 100 85 95 100 100 100 100
78 75 57 53 54 35 36 36 38 40 44 48 47 45 40 34 61 76 76 72 63 62 68 67 75 81 67 87 73 62 79 96 100 100 100 99 94 93 82 85 100 100 100 100 100
Wind_Speed
41 40 38 34 32 30 28 26 25 24 23 24 24 23 22 22 21 21 21 23 23 24 25 26 27 28 30 33 35 35 36 38 38 36 38 40 43 44 44 46 48 49 49 44 45
38 35 33 31 28 26 25 25 24 23 23 23 21 20 19 19 18 18 19 21 22 22 24 24 25 27 28 29 31 33 34 36 37 39 39 39 41 42 44 47 48 49 49 44 42
34 31 28 26 24 22 22 22 20 19 19 18 16 16 16 17 16 16 18 18 20 22 23 23 23 24 27 29 31 32 33 34 36 38 40 39 40 42 44 47 48 47 47 42 45
31 27 25 23 21 20 20 20 18 16 14 13 12 12 12 13 15 15 17 17 19 21 24 24 24 25 27 29 31 32 33 35 36 38 39 39 39 41 42 45 45 45 44 40 42
26 23 21 19 18 18 17 17 15 14 12 10 9 8 9 11 12 14 16 17 20 23 24 26 27 27 29 31 33 34 35 36 37 38 40 40 39 39 42 46 45 44 44 49 44
23 20 17 15 16 16 15 13 11 9 8 7 6 5 7 8 10 13 14 17 19 21 24 27 28 29 31 33 34 35 36 38 39 39 41 40 39 40 43 45 47 49 51 49 49
20 17 15 13 12 12 12 10 9 6 4 3 2 3 5 8 11 13 16 18 20 22 25 26 28 30 33 35 36 37 39 40 41 42 43 40 40 40 44 46 49 51 54 54 56
18 15 13 13 12 11 11 10 8 6 5 4 4 6 8 11 13 15 18 20 22 23 25 27 30 32 34 35 37 40 40 41 44 46 46 43 40 40 44 47 50 54 55 56 60
17 15 13 14 14 12 10 10 10 10 9 9 10 11 13 15 17 19 20 22 24 25 27 30 32 35 37 38 41 43 44 43 46 45 46 46 41 45 46 50 53 56 59 60 62
19 17 16 15 13 13 12 12 11 13 13 13 15 16 18 20 21 23 24 25 27 28 30 32 34 37 39 41 43 45 48 49 48 48 49 46 44 45 50 52 55 59 61 61 62
20 18 17 17 16 16 15 15 15 16 18 19 21 22 23 23 24 25 26 27 30 31 32 34 37 40 41 44 46 48 49 51 52 52 53 49 47 47 52 55 58 60 64 66 65
21 21 20 20 19 18 19 20 21 21 22 23 24 26 26 26 26 28 29 30 32 33 35 37 41 42 45 47 49 50 52 53 54 54 54 52 50 50 53 56 58 61 66 68 66
24 23 23 23 23 24 24 24 24 24 25 26 26 27 28 29 30 31 33 35 36 37 39 41 44 46 48 50 51 52 53 55 56 55 56 53 53 57 57 57 60 65 69 67 67
26 26 27 26 27 28 27 27 27 26 29 30 31 32 33 34 35 36 38 40 41 41 42 44 47 49 51 53 54 55 57 58 58 56 56 54 52 57 59 62 65 67 71 72 68
29 30 30 30 30 32 32 32 32 32 33 35 36 36 37 38 39 40 43 44 45 45 47 49 51 53 57 59 60 60 61 62 62 60 60 58 55 60 63 67 65 66 72 73 71
33 33 34 34 34 35 36 37 38 38 40 39 41 42 43 42 43 45 47 48 48 49 53 52 56 59 62 63 65 66 66 65 65 64 60 56 55 60 67 69 67 72 73 77 76
37 37 37 37 37 38 39 40 40 42 44 44 45 46 47 48 49 50 51 52 52 53 57 58 62 65 67 68 70 72 72 71 68 63 55 53 57 64 68 71 73 75 78 80 80
41 42 43 43 44 44 45 45 45 46 47 47 48 49 51 52 54 54 54 56 59 59 59 61 62 69 72 74 75 76 76 79 69 59 55 60 63 67 72 78 80 78 82 84 83
46 47 48 49 49 50 51 51 51 51 51 52 52 52 55 56 56 57 58 60 62 65 67 66 67 69 75 78 82 79 79 75 66 63 64 67 67 69 80 81 80 82 85 88 90
51 52 53 52 53 55 55 56 56 56 56 56 57 57 58 58 61 62 62 65 68 71 73 73 73 74 78 83 86 86 79 70 69 71 68 69 76 81 85 85 84 85 86 88 91
56 55 56 56 57 57 58 59 59 60 60 60 62 61 63 65 66 68 68 70 73 75 77 79 78 78 80 80 86 86 76 73 78 81 81 79 78 87 90 91 90 91 94 95 100
63 62 63 63 63 63 62 62 63 65 66 65 67 68 69 71 70 72 73 76 77 78 80 84 84 81 84 85 79 77 75 77 83 88 88 91 76 94 97 97 96 99 102 106 106
68 69 70 71 70 70 69 70 71 73 74 73 73 75 77 77 78 76 78 80 81 83 85 86 87 88 86 76 72 73 77 83 89 92 92 97 93 101 103 103 104 104 108 112 111
76 76 76 77 77 77 76 77 80 81 80 79 79 81 83 83 84 82 82 83 84 85 89 88 85 82 76 74 81 79 82 86 93 96 97 98 101 104 111 110 110 111 116 116 117
82 82 83 83 85 86 85 84 88 88 86 86 85 87 88 85 86 86 87 88 87 86 80 79 78 82 81 82 86 85 90 96 99 101 105 101 110 113 111 111 115 117 121 123 121
83 76 76 76 80 88 89 88 90 90 90 88 87 89 87 88 89 89 89 82 79 78 84 84 84 88 85 91 94 91 96 99 104 107 108 111 112 116 116 118 120 121 122 123 123
75 78 76 75 72 76 85 91 91 91 91 91 91 91 92 93 85 79 79 81 83 85 89 91 93 96 91 99 98 95 100 104 108 111 116 118 120 120 121 121 123 125 124 123 120
Wind_Direction
134 134 134 130 128 123 119 114 107 104 99 93 86 80 74 69 64 59 55 49 46 42 39 37 35 32 31 29 27 27 25 22 18 11 8 9 11 12 14 14 11 9 10 4 360
139 137 135 133 129 124 120 117 110 105 98 90 82 79 75 72 65 56 46 41 38 33 30 27 25 22 20 19 20 19 19 15 11 10 7 5 4 5 8 9 9 8 5 2 356
143 141 138 134 132 128 122 117 114 107 100 90 84 76 66 60 57 47 42 35 29 26 22 18 17 13 11 10 10 10 10 8 6 3 4 1 1 0 3 2 4 2 1 352 354
149 145 142 138 136 129 127 122 120 114 104 98 85 73 59 47 44 36 32 28 23 19 16 13 11 8 5 4 2 2 2 360 359 358 356 355 355 355 357 359 358 357 356 352 344
152 149 147 145 141 138 132 132 129 120 113 100 88 73 54 39 29 24 19 15 14 14 10 9 8 4 1 358 356 354 353 353 352 352 351 351 349 347 351 353 356 353 350 352 345
157 155 156 155 146 145 144 141 139 134 128 105 83 59 39 23 12 6 2 3 5 4 4 2 359 359 357 357 354 351 348 344 344 345 347 345 343 340 346 347 350 350 351 345 343
161 163 167 162 161 159 159 157 160 165 152 131 56 360 347 350 352 351 350 350 353 354 356 353 352 352 351 351 349 347 344 341 339 340 341 340 338 335 340 343 345 344 342 339 339
171 175 177 179 176 175 175 182 200 214 227 248 274 296 313 320 329 335 339 342 343 345 345 345 346 346 345 345 343 341 337 336 337 336 337 335 332 333 333 337 340 339 339 336 335
177 175 178 176 178 187 197 210 225 242 251 261 274 286 296 307 314 319 328 334 335 334 338 339 341 341 340 338 338 336 334 335 336 335 333 329 329 328 329 330 334 335 335 334 332
185 186 190 194 195 208 219 228 242 254 261 273 281 285 291 298 306 313 318 320 323 327 331 334 336 335 335 334 332 332 331 331 331 332 330 326 324 324 326 328 331 333 332 330 328
195 197 202 206 215 224 235 243 248 258 266 275 282 287 289 292 298 305 312 314 315 321 324 328 329 329 329 328 328 328 328 329 329 328 327 326 323 322 324 325 329 330 330 330 327
206 210 213 218 228 238 243 251 257 262 268 274 282 284 284 285 293 301 305 308 312 318 321 322 323 323 323 325 325 324 324 326 328 324 322 322 317 318 322 324 327 328 328 327 322
217 220 224 231 237 243 248 254 261 265 269 275 279 282 282 287 292 298 301 304 308 313 316 318 318 319 319 319 320 320 321 322 323 321 318 318 313 316 321 322 323 325 326 325 321
226 230 233 238 242 246 251 257 263 268 272 276 280 283 286 288 292 296 299 304 307 309 311 312 314 315 315 315 315 316 318 319 319 319 316 312 309 310 314 316 320 322 322 321 320
235 238 241 245 248 251 255 262 266 271 276 279 280 282 284 286 288 293 297 300 302 306 307 309 310 312 313 313 313 314 315 317 317 317 315 313 309 306 311 314 320 317 318 317 315
240 244 248 252 256 259 263 266 269 272 274 277 279 280 282 283 287 291 292 297 302 305 306 309 309 309 310 311 311 311 312 314 315 314 312 310 309 303 309 312 315 313 314 314 312
245 249 252 256 259 262 264 266 270 272 274 276 278 280 283 284 286 289 294 298 301 302 305 307 307 307 309 309 309 310 311 313 315 310 308 309 310 309 309 310 316 316 315 313 313
250 251 253 256 259 262 265 267 270 271 272 274 275 278 280 284 287 291 295 298 297 299 301 301 304 306 306 306 307 308 309 312 312 308 310 312 310 310 310 310 315 315 314 317 314
253 256 258 260 262 264 267 269 271 273 274 276 279 281 283 287 289 292 294 296 296 297 298 301 302 304 304 304 306 310 309 310 309 310 314 313 311 313 308 309 313 313 313 314 315
256 257 259 261 264 265 267 269 272 274 275 277 280 283 284 286 289 291 292 294 295 296 299 300 301 303 304 304 306 307 308 306 306 308 311 314 314 315 311 313 313 315 314 313 314
255 258 260 262 263 266 268 270 272 273 274 276 279 282 284 286 288 289 292 293 294 295 297 298 300 300 301 302 304 305 303 304 306 306 309 311 314 309 311 312 315 316 316 316 316
258 260 261 263 264 265 267 270 272 275 277 278 280 283 285 285 286 289 291 292 292 294 296 296 298 299 300 301 301 301 301 303 305 306 309 309 317 310 313 313 315 314 316 316 317
261 264 265 266 266 268 271 272 274 277 279 280 282 283 284 285 287 287 288 291 294 295 295 296 297 298 299 298 298 300 302 303 304 306 309 310 314 313 311 314 312 315 315 317 318
263 266 268 268 269 269 270 272 275 276 278 279 280 282 282 284 287 288 289 291 291 293 295 296 296 298 301 300 299 302 304 304 303 305 307 312 312 310 312 312 313 314 314 315 316
265 266 268 269 270 270 270 271 272 274 277 279 280 280 282 285 286 287 288 289 290 292 293 295 296 297 301 301 299 304 304 303 304 306 308 310 310 308 309 310 313 312 313 313 313
265 267 267 269 272 271 270 269 271 273 276 277 279 281 282 284 286 288 287 288 291 292 293 294 296 298 301 299 300 304 302 302 304 305 306 305 307 307 307 310 310 311 312 313 313
264 267 271 272 275 274 270 271 272 275 277 278 278 279 282 284 285 287 287 289 290 291 292 295 297 298 301 298 301 305 303 302 301 302 302 303 305 304 307 307 309 309 311 312 311